Location: Unspecified
(38.9820°N, 94.4650°W)
Time: 11:42:15
(UTC-05:00)

CZ-3 Stage 3 - Visible Passes

Search period start: 21 July 2017 00:00
Search period end: 31 July 2017 00:00
Orbit: 425 x 34773 km, 31.0° (Epoch: 20 July)

Date Brightness Start Highest point End Pass type
(mag) Time Alt. Az. Time Alt. Az. Time Alt. Az.
21 Jul 6.6 13:33:27 10° WSW 18:32:31 39° SE 22:29:07 10° SSE visible
22 Jul 10.6 21:00:53 10° WNW 22:03:00 23° W 00:19:39 10° W visible
23 Jul 8.4 17:03:19 10° W 17:57:26 64° SW 00:53:11 10° SW visible
24 Jul 6.5 13:24:18 10° WSW 18:19:48 38° SE 22:18:36 10° SSE visible
25 Jul 10.7 20:52:07 10° WNW 21:52:49 23° W 00:04:50 10° W visible
26 Jul 8.4 16:54:11 10° W 17:47:19 64° SW 00:39:23 10° SW visible
27 Jul 6.5 13:15:10 10° WSW 18:07:04 38° SE 22:08:03 10° SSE visible
28 Jul 10.8 20:43:26 10° W 21:42:42 22° W 23:49:55 10° W visible
29 Jul 8.3 16:45:04 10° W 17:37:17 63° SW 00:25:30 10° SW visible
30 Jul 6.4 13:06:04 10° WSW 17:54:14 37° SE 21:57:28 10° S visible
